Orbital Elements at Epoch 2459000.5 (2020-May-31.0) TDB
Reference: JPL 23 (heliocentric ecliptic J2000)
Element | Value | Uncertainty (1-sigma) | Units |
e | .3751369387354624 | 5.39e-08 | |
a | 2.622894653366882 | 1.6225e-08 | au |
q | 1.638949982477218 | 1.4376e-07 | au |
i | 28.76217591122096 | 9.5076e-06 | deg |
node | 309.829552714583 | 8.1101e-06 | deg |
peri | 64.4117013537662 | 1.3989e-05 | deg |
M | 107.9116518907332 | 1.1346e-05 | deg |
tp | 2458535.411566985617 (2019-Feb-20.91156699) | 4.6058e-05 | TDB |
period | 1551.564015114071 4.25 | 1.4397e-05 3.942e-08 | d yr |
n | .2320239426109228 | 2.1529e-09 | deg/d |
Q | 3.606839324256545 | 2.2311e-08 | au |
|
| | Orbit Determination Parameters
Additional Information
|